{"data":{"norad_id":55367,"epoch":"2026-05-25T05:04:44.762880Z","epoch_age_seconds":52614,"freshness":"FRESH","line1":"1 55367U 23013AN  26145.21162920 -.00000106  00000+0  56898-5 0  9994","line2":"2 55367  43.0010 216.7716 0001351 271.9545  88.1152 15.27573240183541","mean_motion":15.2757324,"eccentricity":0.0001351,"inclination_deg":43.001,"raan_deg":216.7716,"arg_perigee_deg":271.9545,"mean_anomaly_deg":88.1152,"bstar":5.6898e-6,"rev_number":18354,"period_min":94.267165874155,"perigee_km":482.14238900993,"apogee_km":483.99628696246,"semimajor_km":6861.2063379862,"source":"CELESTRAK","updated_at":"2026-05-25T13:38:17.767113Z"}}